Location: Pinawa
(50.1500°N, 95.8830°W)
Time: 19:21:34
(UTC-05:00)

ISS - All Passes

Search period start: 01 October 2014 00:00
Search period end: 11 October 2014 00:00
Orbit: 413 x 416 km, 51.6° (Epoch: 01 October)

Date Brightness Start Highest point End Pass type
(mag) Time Alt. Az. Time Alt. Az. Time Alt. Az.
01 Oct - 01:17:18 10° W 01:20:38 78° NNW 01:23:59 10° ENE night (unlit)
01 Oct - 02:54:09 10° WNW 02:57:29 71° N 03:00:49 10° E night (unlit)
01 Oct - 04:30:55 10° W 04:34:08 45° SSW 04:37:19 10° SE visible
01 Oct - 22:52:23 10° SSW 22:55:07 24° SE 22:57:51 10° E night (unlit)
02 Oct - 00:28:10 10° WSW 00:31:31 85° SSE 00:34:51 10° ENE night (unlit)
02 Oct - 02:05:00 10° W 02:08:20 66° N 02:11:39 10° E night (unlit)
02 Oct - 03:41:46 10° WNW 03:45:04 64° SSW 03:48:22 10° ESE night (unlit)
02 Oct - 05:19:13 10° W 05:21:17 16° SW 05:23:21 10° S visible
02 Oct - 22:04:03 10° S 22:06:10 16° SE 22:08:18 10° E night (unlit)
02 Oct - 23:39:05 10° WSW 23:42:24 65° SSE 23:45:42 10° ENE night (unlit)
03 Oct - 01:15:49 10° W 01:19:08 65° N 01:22:28 10° E night (unlit)
03 Oct - 02:52:37 10° WNW 02:55:57 84° SSW 02:59:17 10° ESE night (unlit)
03 Oct - 04:29:38 10° W 04:32:20 23° SW 04:35:03 10° SSE night (unlit)
03 Oct - 21:16:46 10° SE 21:17:15 10° SE 21:17:45 10° SE night (unlit)
03 Oct - 22:50:05 10° SW 22:53:17 46° SSE 22:56:30 10° ENE night (unlit)
04 Oct - 00:26:36 10° W 00:29:56 71° N 00:33:16 10° ENE night (unlit)
04 Oct - 02:03:26 10° WNW 02:06:47 79° NNE 02:10:07 10° E night (unlit)
04 Oct - 03:40:16 10° W 03:43:19 34° SSW 03:46:22 10° SE night (unlit)
04 Oct - 22:01:13 10° SSW 22:04:13 32° SSE 22:07:13 10° E night (unlit)
04 Oct - 23:37:23 10° WSW 23:40:43 82° NNW 23:44:04 10° ENE night (unlit)
05 Oct - 01:14:14 10° WNW 01:17:34 69° N 01:20:53 10° E night (unlit)
05 Oct - 02:50:59 10° WNW 02:54:13 49° SSW 02:57:27 10° SE night (unlit)
05 Oct - 04:29:13 10° WSW 04:30:17 11° SW 04:31:22 10° SSW night (unlit)
05 Oct - 21:12:32 10° SSW 21:15:09 22° SE 21:17:47 10° E visible
05 Oct - 22:48:10 10° WSW 22:51:30 80° SSE 22:54:51 10° ENE night (unlit)
06 Oct - 00:24:59 10° W 00:28:18 65° N 00:31:37 10° E night (unlit)
06 Oct - 02:01:44 10° WNW 02:05:04 69° SSW 02:08:22 10° ESE night (unlit)
06 Oct - 03:39:02 10° W 03:41:19 17° SW 03:43:35 10° S night (unlit)
06 Oct - 20:24:14 10° S 20:26:07 14° SE 20:28:01 10° ESE visible
06 Oct - 21:59:01 10° WSW 22:02:18 60° SSE 22:05:36 10° ENE visible
06 Oct - 23:35:42 10° W 23:39:01 66° N 23:42:20 10° E night (unlit)
07 Oct - 01:12:29 10° WNW 01:15:50 89° SSW 01:19:10 10° ESE night (unlit)
07 Oct - 02:49:26 10° W 02:52:15 26° SW 02:55:04 10° SSE night (unlit)
07 Oct - 21:09:57 10° SW 21:13:06 42° SSE 21:16:17 10° E visible
07 Oct - 22:46:23 10° W 22:49:43 73° N 22:53:03 10° ENE night (unlit)
08 Oct - 00:23:13 10° WNW 00:26:33 76° N 00:29:53 10° E night (unlit)
08 Oct - 02:00:00 10° W 02:03:07 37° SSW 02:06:13 10° SE night (unlit)
08 Oct - 20:21:01 10° SSW 20:23:56 29° SSE 20:26:52 10° E visible
08 Oct - 21:57:04 10° WSW 22:00:24 86° NNW 22:03:45 10° ENE visible
08 Oct - 23:33:54 10° WNW 23:37:14 68° N 23:40:33 10° E night (unlit)
09 Oct - 01:10:39 10° WNW 01:13:55 54° SSW 01:17:10 10° SE night (unlit)
09 Oct - 02:48:30 10° WSW 02:50:02 13° SW 02:51:33 10° SSW night (unlit)
09 Oct - 19:32:20 10° S 19:34:48 20° SE 19:37:17 10° E visible
09 Oct - 21:07:46 10° WSW 21:11:06 75° SSE 21:14:26 10° ENE visible
09 Oct - 22:44:33 10° W 22:47:52 65° N 22:51:12 10° E visible
10 Oct - 00:21:19 10° WNW 00:24:39 74° SSW 00:27:58 10° ESE night (unlit)
10 Oct - 01:58:29 10° W 02:00:56 19° SW 02:03:23 10° S night (unlit)
10 Oct - 18:44:07 10° SSE 18:45:41 13° SE 18:47:16 10° ESE daylight
10 Oct - 20:18:33 10° SW 20:21:48 54° SSE 20:25:05 10° ENE visible
10 Oct - 21:55:10 10° W 21:58:30 67° N 22:01:49 10° ENE visible
10 Oct - 23:31:58 10° WNW 23:35:19 86° NNE 23:38:39 10° ESE night (unlit)
